Wind_Speed
14 13 13 11 8 6 4 4 4 5 5 5 5 7 8 8 8 7 7 7 7 8 7 6 6 6 5 6 6 6 5 4 5 5 5 5 5 5 6 7 8 7 7
15 16 16 13 10 8 7 7 7 8 8 8 8 8 8 8 9 8 8 8 7 7 9 9 7 6 6 5 5 6 5 5 6 6 6 6 3 1 4 5 4 6 6
17 16 14 13 12 10 8 9 10 11 12 11 11 11 11 11 10 9 9 8 8 8 7 8 8 7 6 7 6 6 6 5 6 7 6 6 6 5 5 4 4 5 5
19 18 16 14 13 10 9 10 11 11 11 12 13 14 15 14 14 13 12 11 10 9 8 8 8 8 7 7 7 6 6 5 6 6 6 4 2 5 6 4 4 5 4
20 17 15 13 11 10 9 9 8 8 10 13 15 17 17 17 17 17 17 16 14 13 11 9 9 8 8 8 8 7 7 6 7 6 7 5 7 7 6 6 6 4 4
18 15 14 12 10 8 8 7 7 10 13 17 19 20 19 19 18 17 18 20 18 17 15 13 12 11 9 10 9 9 9 9 8 7 7 7 6 7 9 10 8 5 3
17 16 15 13 10 8 8 8 10 13 16 19 21 21 19 18 19 18 17 19 21 20 20 18 17 15 14 12 12 12 10 11 11 10 8 8 9 8 6 8 12 10 5
18 17 15 14 11 9 8 9 12 15 18 21 21 18 18 18 18 19 19 18 19 22 23 22 20 20 19 18 16 15 15 13 12 12 11 9 10 10 9 10 11 12 9
16 16 15 13 11 10 11 12 15 18 20 21 21 19 18 17 18 19 19 20 19 20 23 24 24 24 23 22 22 20 19 18 15 15 15 13 12 11 11 11 12 12 12
15 15 15 13 13 14 14 15 17 19 21 21 20 20 20 20 21 20 21 21 20 22 23 24 23 25 26 26 24 25 24 22 20 19 18 18 17 14 13 13 14 13 12
15 14 14 15 15 17 17 18 18 20 21 21 20 19 21 22 23 23 23 23 22 22 23 25 26 27 29 27 26 25 26 26 25 24 23 22 23 22 16 15 15 15 14
16 16 16 17 17 19 20 20 21 22 22 22 21 21 22 23 24 25 25 25 25 24 24 24 25 26 28 30 31 31 31 31 29 27 27 27 27 25 24 17 18 18 18
15 16 17 18 19 21 22 21 21 21 21 22 22 22 24 25 26 26 26 26 26 26 25 25 25 27 26 28 29 29 30 31 31 30 30 31 31 29 28 25 21 20 19
15 18 19 20 22 23 25 23 23 22 21 22 24 24 24 26 28 28 28 27 27 27 28 28 28 28 29 29 30 30 29 29 29 29 31 32 31 32 32 30 28 25 20
19 21 22 22 23 25 25 24 24 23 23 23 24 24 25 26 28 28 27 27 27 27 28 29 29 29 29 30 31 31 31 31 30 30 30 32 35 34 32 32 32 30 30
21 22 23 25 25 26 27 26 26 25 24 24 24 24 26 28 28 29 29 28 28 28 28 28 29 29 29 29 30 30 30 31 32 32 32 32 31 34 37 35 33 34 32
22 25 26 28 28 28 29 28 27 26 25 25 25 26 27 28 29 29 30 30 29 28 28 28 29 29 28 29 29 30 29 29 29 32 33 33 34 33 35 38 39 37 31
22 23 25 26 27 28 29 29 28 27 26 26 25 26 28 29 30 31 30 30 30 29 29 29 30 29 29 28 27 29 29 29 28 27 30 33 36 36 35 37 39 40 40
22 22 23 24 25 27 29 30 28 27 27 28 29 30 32 33 32 30 30 30 31 31 31 31 31 31 29 28 27 28 28 28 28 28 28 29 32 35 37 37 39 41 43
24 24 23 24 25 26 28 29 29 29 29 29 30 31 32 33 33 33 32 31 30 30 31 31 31 31 31 30 27 27 29 29 30 30 30 30 31 32 36 36 38 44 45
27 25 25 24 23 26 29 30 30 30 30 30 30 31 31 30 29 31 31 31 31 30 30 30 30 30 31 31 29 27 29 30 30 31 32 31 32 32 35 36 37 40 44
29 27 26 23 23 25 26 29 30 30 31 31 32 31 30 29 29 29 30 30 30 30 31 30 30 31 33 34 34 34 32 30 28 30 30 30 32 32 32 34 35 38 40
32 28 25 21 22 24 24 25 27 29 30 31 31 30 28 27 27 28 29 29 29 29 29 30 31 32 33 34 35 34 35 34 32 26 24 24 26 29 31 32 34 36 38
31 29 22 23 25 27 26 26 26 29 30 30 29 27 27 28 28 27 27 27 27 27 29 30 33 34 35 36 36 34 33 34 35 34 26 25 27 27 28 31 32 35 37
30 21 29 24 30 30 27 25 25 27 27 26 25 25 27 28 28 27 25 26 27 28 31 33 35 36 34 34 33 32 32 32 35 37 37 31 32 30 32 33 33 34 37
21 27 24 26 28 27 28 27 25 22 22 23 25 27 27 27 26 25 25 27 29 32 34 34 33 33 32 31 31 32 32 32 34 37 40 37 38 36 36 36 36 38 40
Wind_Direction
205 213 213 201 200 207 210 240 259 286 294 301 306 310 317 324 329 333 328 319 309 301 296 291 295 302 308 307 314 320 324 325 308 312 320 332 346 359 353 352 338 349 358
212 212 202 200 205 215 230 249 268 280 284 283 282 279 285 299 309 312 317 311 301 297 296 295 295 296 299 297 307 311 318 328 314 317 321 328 339 30 343 342 329 329 1
201 204 200 200 207 220 240 263 282 292 296 295 292 289 282 273 275 282 287 292 297 294 287 287 295 294 295 294 297 302 311 320 312 314 315 322 304 346 346 339 329 326 4
208 199 200 198 213 231 257 276 287 295 305 306 306 303 296 286 273 267 269 268 268 271 277 284 289 293 289 283 285 289 298 304 299 306 306 306 301 320 329 313 321 312 359
199 201 199 205 223 240 262 275 284 306 316 320 317 311 304 296 288 275 267 263 264 267 268 269 275 281 285 280 279 279 285 286 289 295 299 299 238 260 295 292 281 293 345
199 198 201 211 228 242 255 257 287 308 315 318 318 312 303 298 292 284 276 270 267 264 264 266 268 271 274 283 279 277 279 283 284 289 293 291 259 272 291 299 293 280 304
195 201 205 211 221 238 250 272 296 305 311 313 314 311 306 298 293 289 283 274 267 265 266 266 265 263 267 263 263 265 263 267 278 282 279 280 275 287 261 301 300 292 276
201 205 208 214 221 229 255 279 293 300 304 308 312 308 305 302 295 288 282 277 273 265 265 265 268 270 268 269 268 267 267 264 265 273 280 275 276 283 273 270 292 288 271
207 212 216 223 231 242 257 275 288 298 304 310 308 304 302 299 296 294 290 284 277 269 266 267 267 267 266 269 271 269 268 268 266 268 272 274 269 270 268 281 272 278 276
222 225 229 235 241 249 261 274 286 293 300 303 301 302 302 300 296 294 292 288 283 275 271 266 266 267 266 265 269 270 270 269 267 266 268 270 267 255 260 261 267 264 271
247 243 247 255 262 266 270 277 283 291 296 296 295 296 298 300 299 295 290 287 284 279 276 273 269 265 265 264 264 263 264 266 268 268 267 264 265 268 256 254 260 251 262
263 262 265 266 268 272 278 284 290 294 295 296 297 297 298 299 298 296 293 289 285 281 277 275 275 271 269 270 269 266 264 264 265 264 265 263 261 264 266 259 258 257 254
269 270 271 270 270 273 279 283 286 287 291 292 294 297 299 299 297 294 291 288 285 283 281 277 275 275 274 272 272 270 269 267 262 259 260 261 264 262 263 262 254 252 258
268 268 267 270 274 279 284 286 286 284 285 287 290 293 298 300 297 293 291 288 285 283 283 282 279 277 277 276 276 275 273 271 269 265 256 256 259 262 265 265 258 249 250
283 275 272 273 276 279 280 279 278 277 279 282 286 289 294 296 295 290 288 288 287 286 284 283 282 280 279 278 277 277 276 273 269 266 262 258 257 256 260 260 265 261 255
286 282 278 275 273 273 273 271 270 271 275 279 283 289 295 299 295 292 289 287 286 284 284 283 283 282 281 280 279 277 276 274 274 271 266 263 259 258 257 252 254 261 260
293 289 286 283 281 278 276 273 272 275 280 285 291 296 300 300 296 291 288 286 285 285 284 282 281 280 280 279 279 278 277 277 273 272 272 267 263 258 259 254 252 252 255
294 289 287 284 281 279 277 276 277 279 285 289 293 299 304 303 298 294 290 288 290 291 288 285 284 284 283 282 281 282 283 282 281 276 271 268 267 262 257 256 255 253 253
295 293 290 285 278 275 276 278 282 286 289 291 295 301 304 303 299 294 292 292 293 295 294 291 288 286 284 281 281 281 282 282 282 281 277 273 270 268 263 255 254 254 250
291 296 289 282 279 279 278 279 282 283 284 286 290 295 299 299 298 295 294 295 296 295 294 293 291 289 286 283 282 280 280 281 281 280 280 279 273 269 267 264 253 249 251
284 291 293 292 292 285 283 284 284 286 288 291 295 298 297 295 292 291 292 296 298 298 295 293 291 288 287 286 284 278 279 279 278 278 277 276 275 274 269 267 263 252 248
288 292 299 303 304 296 287 286 288 290 292 294 297 297 296 294 293 293 294 295 296 296 295 295 294 293 293 292 293 291 284 277 272 273 273 272 273 271 271 269 268 264 254
283 293 305 317 321 311 298 290 289 290 292 295 296 296 297 295 294 294 295 295 296 296 296 296 297 297 298 297 297 296 293 285 279 264 268 271 271 270 274 272 270 270 267
282 294 325 323 319 316 308 296 293 291 292 293 296 298 299 297 297 296 296 295 294 295 297 299 300 300 300 299 298 296 294 293 289 280 270 273 273 276 270 269 273 272 272
279 306 304 307 316 315 312 298 292 291 289 291 291 293 295 296 297 296 295 295 297 299 299 301 301 300 299 298 296 294 294 293 293 291 286 280 280 280 279 277 276 274 272
287 299 315 311 307 312 310 304 295 286 287 290 293 295 297 298 298 297 298 299 301 301 302 301 300 299 298 297 297 297 296 296 295 296 294 291 286 282 282 280 278 274 272
Height
3155 3157 3159 3159 3160 3160 3161 3161 3160 3160 3160 3159 3157 3157 3155 3155 3154 3153 3152 3150 3149 3148 3146 3146 3145 3144 3143 3142 3142 3141 3140 3140 3139 3138 3138 3137 3136 3136 3136 3135 3136 3135 3134
3154 3156 3157 3157 3158 3159 3159 3159 3159 3159 3158 3157 3156 3156 3155 3154 3153 3152 3151 3150 3148 3148 3147 3146 3144 3144 3143 3142 3142 3141 3140 3139 3138 3138 3137 3136 3135 3135 3135 3134 3134 3135 3134
3153 3155 3155 3155 3157 3157 3157 3158 3157 3157 3157 3156 3156 3155 3154 3153 3152 3151 3150 3149 3148 3147 3146 3145 3145 3144 3142 3141 3140 3140 3139 3139 3137 3137 3136 3136 3135 3135 3135 3134 3134 3134 3133
3151 3152 3153 3154 3155 3156 3156 3157 3157 3157 3156 3156 3155 3154 3152 3151 3150 3149 3148 3148 3147 3145 3144 3143 3142 3142 3141 3140 3139 3139 3138 3138 3137 3136 3136 3136 3135 3135 3134 3134 3133 3133 3131
3149 3150 3151 3153 3154 3155 3156 3157 3157 3157 3156 3155 3154 3152 3151 3150 3149 3148 3147 3145 3145 3144 3143 3142 3141 3140 3140 3139 3137 3137 3136 3136 3135 3135 3134 3135 3134 3134 3134 3133 3132 3131 3130
3148 3150 3151 3152 3154 3154 3155 3156 3156 3155 3155 3153 3152 3150 3148 3147 3146 3145 3144 3144 3143 3142 3141 3140 3139 3139 3138 3138 3136 3136 3135 3134 3134 3134 3133 3132 3132 3133 3132 3132 3131 3130 3129
3148 3149 3150 3151 3152 3153 3154 3155 3154 3153 3152 3151 3149 3147 3145 3144 3143 3143 3141 3141 3140 3139 3138 3138 3137 3137 3135 3134 3133 3132 3132 3131 3132 3131 3131 3131 3130 3130 3130 3130 3130 3128 3127
3147 3148 3149 3150 3150 3151 3152 3152 3152 3151 3150 3148 3146 3144 3142 3141 3140 3138 3137 3136 3136 3136 3136 3135 3135 3135 3134 3133 3132 3130 3129 3129 3129 3129 3130 3130 3129 3128 3127 3127 3128 3127 3126
3146 3147 3148 3148 3149 3149 3149 3149 3148 3148 3146 3145 3143 3142 3140 3138 3137 3135 3134 3133 3132 3132 3132 3132 3131 3131 3130 3129 3129 3128 3127 3126 3127 3127 3126 3126 3126 3126 3125 3125 3125 3125 3125
3144 3145 3146 3147 3147 3146 3146 3147 3145 3144 3143 3142 3141 3139 3137 3135 3133 3132 3130 3129 3128 3127 3127 3126 3126 3126 3126 3125 3125 3125 3124 3124 3123 3123 3123 3122 3122 3122 3122 3122 3121 3121 3122
3144 3144 3144 3145 3145 3144 3144 3144 3142 3141 3140 3139 3137 3135 3134 3132 3130 3128 3126 3125 3124 3123 3122 3121 3121 3121 3120 3120 3119 3119 3120 3120 3120 3120 3119 3119 3117 3117 3118 3118 3118 3118 3119
3140 3141 3141 3141 3141 3141 3141 3142 3141 3140 3138 3136 3134 3133 3131 3128 3126 3124 3122 3120 3119 3118 3117 3116 3116 3115 3115 3114 3114 3114 3114 3114 3115 3116 3116 3114 3113 3113 3114 3114 3115 3115 3115
3136 3137 3137 3137 3137 3136 3136 3136 3136 3135 3134 3132 3130 3129 3128 3126 3123 3121 3118 3116 3114 3113 3112 3111 3109 3109 3108 3108 3108 3108 3108 3108 3108 3109 3109 3109 3109 3109 3109 3109 3110 3111 3111
3134 3134 3133 3133 3133 3132 3132 3132 3131 3130 3129 3127 3126 3124 3123 3122 3120 3117 3115 3113 3111 3109 3107 3106 3104 3102 3102 3101 3101 3101 3101 3102 3102 3102 3103 3103 3103 3103 3104 3104 3104 3105 3106
3131 3130 3129 3128 3128 3127 3126 3126 3124 3124 3123 3123 3121 3120 3117 3115 3114 3112 3110 3108 3106 3104 3102 3101 3099 3097 3096 3095 3094 3094 3093 3093 3093 3094 3095 3096 3096 3097 3097 3098 3099 3099 3100
3126 3125 3124 3123 3122 3120 3119 3118 3118 3118 3118 3117 3116 3114 3113 3110 3109 3106 3104 3102 3100 3098 3097 3095 3094 3092 3091 3089 3088 3087 3086 3086 3086 3086 3086 3088 3088 3089 3090 3090 3091 3091 3094
3122 3121 3120 3119 3118 3117 3114 3114 3114 3114 3114 3113 3112 3111 3109 3106 3104 3101 3099 3097 3095 3093 3090 3088 3087 3086 3085 3084 3082 3080 3079 3079 3079 3079 3079 3079 3080 3081 3081 3082 3083 3084 3085
3118 3116 3115 3114 3114 3112 3111 3110 3111 3110 3109 3108 3107 3104 3102 3101 3099 3097 3095 3092 3090 3088 3085 3082 3081 3079 3078 3078 3077 3075 3074 3072 3072 3072 3071 3071 3070 3071 3073 3074 3075 3076 3077
3114 3111 3110 3109 3107 3106 3105 3105 3106 3105 3104 3102 3102 3100 3098 3095 3093 3091 3089 3087 3085 3082 3080 3077 3075 3073 3072 3071 3071 3069 3068 3067 3066 3065 3063 3063 3063 3061 3062 3064 3066 3067 3067
3110 3108 3106 3104 3103 3102 3100 3099 3099 3098 3097 3096 3094 3093 3091 3090 3088 3085 3084 3081 3078 3076 3074 3072 3069 3067 3066 3065 3065 3063 3061 3060 3059 3058 3056 3055 3054 3053 3052 3052 3054 3056 3057
3105 3103 3102 3101 3099 3098 3095 3094 3093 3093 3092 3091 3090 3088 3086 3084 3081 3079 3076 3075 3073 3070 3067 3065 3063 3061 3059 3057 3058 3059 3056 3054 3053 3050 3049 3048 3046 3045 3043 3042 3042 3043 3046
3100 3099 3099 3097 3095 3093 3091 3089 3088 3087 3085 3084 3083 3082 3080 3078 3076 3074 3071 3068 3066 3064 3061 3058 3056 3054 3051 3048 3047 3046 3047 3048 3046 3042 3041 3040 3038 3037 3035 3033 3032 3032 3033
3094 3093 3095 3093 3090 3089 3087 3085 3083 3082 3080 3078 3077 3076 3075 3073 3070 3068 3066 3062 3059 3057 3055 3053 3050 3047 3044 3041 3039 3038 3035 3033 3033 3036 3035 3032 3030 3028 3027 3025 3023 3021 3022
3090 3090 3091 3089 3087 3085 3083 3082 3080 3078 3075 3072 3071 3069 3069 3068 3065 3062 3060 3057 3054 3051 3049 3046 3043 3040 3037 3034 3031 3028 3026 3023 3021 3021 3026 3024 3022 3021 3019 3017 3015 3013 3011
3086 3086 3087 3085 3083 3081 3079 3076 3073 3072 3070 3067 3066 3064 3062 3061 3059 3056 3054 3052 3049 3046 3042 3040 3036 3033 3030 3027 3024 3021 3018 3016 3012 3010 3011 3014 3013 3012 3009 3008 3007 3004 3002
3084 3084 3083 3081 3078 3075 3073 3071 3070 3067 3066 3064 3063 3061 3058 3055 3054 3051 3048 3046 3043 3040 3036 3033 3030 3027 3024 3020 3017 3014 3011 3009 3005 3000 2998 3000 3000 3002 2999 2998 2996 2994 2992